Inquirer Daily News

Weather

Get conditions and forecasts for any City, State, ZIP code or Country:  
Trenton, NJ
on Friday, January 11, 2013

Friday
Previous Day Next Day
Daily Summary
 ActualAverageRecord
Temperature
Mean Temperature °F 31°F  
Max Temperature 47°F 39°F 65°F (1975)
Min Temperature 32°F 23°F 0°F (1988)
Degree Days
Heating Degree Days 25 34  
Month to date heating degree days 320 373  
Since 1 July heating degree days 2078 2268  
Cooling Degree Days 0 0  
Month to date cooling degree days 0 0  
Year to date cooling degree days 0 0  
Moisture
Dew Point 37°F   
Average Humidity 80    
Maximum Humidity 100    
Minimum Humidity 59    
Precipitation
Precipitation 0.61 in 0.10 in 1.04 in (1924)
Month to date precipitation 0.62 1.24  
Year to date precipitation 0.62 1.24  
Wind
Wind Speed 4 mph   
Max Wind Speed 13 mph   
Max Gust Speed 17 mph   
Visibility 7 miles   
Events Rain   

Key: T is trace of precipitation, MM is missing value
Source: NWS Daily Summary
Time(EST)TemperatureDew PointHumidity Pressure Visibility Wind DirectionWind SpeedGust SpeedPrecipitationEvents Conditions
12:53 AM 37.9°F 25.0°F 60% 30.50 in 10.0 miles NE 3.5 mph - N/A   Clear
1:53 AM 37.9°F 25.0°F 60% 30.48 in 10.0 miles ENE 5.8 mph - N/A   Clear
2:53 AM 37.0°F 25.0°F 62% 30.47 in 10.0 miles East 3.5 mph - N/A   Clear
3:53 AM 37.0°F 26.1°F 65% 30.45 in 10.0 miles ESE 4.6 mph - N/A   Clear
4:53 AM 35.1°F 26.1°F 70% 30.45 in 10.0 miles Calm Calm - N/A   Clear
5:53 AM 35.1°F 26.1°F 70% 30.45 in 10.0 miles Calm Calm - N/A   Clear
6:53 AM 34.0°F 25.0°F 70% 30.45 in 10.0 miles Calm Calm - N/A   Clear
7:53 AM 34.0°F 26.1°F 73% 30.42 in 10.0 miles East 5.8 mph - N/A   Clear
8:53 AM 37.9°F 27.0°F 65% 30.44 in 10.0 miles East 5.8 mph - N/A   Overcast
9:53 AM 39.0°F 28.0°F 65% 30.43 in 10.0 miles East 3.5 mph - N/A   Scattered Clouds
10:53 AM 41.0°F 30.9°F 67% 30.38 in 10.0 miles ESE 3.5 mph - N/A   Mostly Cloudy
11:53 AM 42.1°F 34.0°F 73% 30.34 in 10.0 miles SE 4.6 mph - 0.00 in Rain Light Rain
12:53 PM 44.1°F 35.1°F 71% 30.30 in 10.0 miles East 3.5 mph - 0.00 in   Overcast
1:30 PM 44.6°F 35.6°F 71% 30.30 in 10.0 miles SE 4.6 mph - N/A   Overcast
1:53 PM 46.0°F 36.0°F 68% 30.28 in 9.0 miles SSE 4.6 mph - 0.00 in Rain Light Rain
2:05 PM 44.6°F 37.4°F 76% 30.27 in 7.0 miles SE 6.9 mph - 0.01 in Rain Light Rain
2:53 PM 46.0°F 39.9°F 79% 30.25 in 10.0 miles ESE 4.6 mph - 0.01 in   Overcast
3:53 PM 46.0°F 39.9°F 79% 30.23 in 10.0 miles ESE 4.6 mph - N/A   Overcast
4:53 PM 45.0°F 42.1°F 90% 30.21 in 4.0 miles SSE 5.8 mph - 0.08 in Rain Rain
5:53 PM 45.0°F 43.0°F 93% 30.15 in 5.0 miles SE 9.2 mph - 0.12 in Rain Light Rain
6:24 PM 44.6°F 42.8°F 93% 30.15 in 6.0 miles SSE 9.2 mph - 0.03 in Rain Rain
6:36 PM 44.6°F 44.6°F 100% 30.14 in 3.0 miles South 8.1 mph - 0.08 in Rain Rain
6:53 PM 46.0°F 44.1°F 93% 30.17 in 4.0 miles NNW 4.6 mph - 0.13 in Rain Light Rain
7:37 PM 44.6°F 42.8°F 93% 30.17 in 3.0 miles North 5.8 mph - 0.16 in Rain Light Rain
7:50 PM 44.6°F 44.6°F 100% 30.16 in 2.5 miles NE 4.6 mph - 0.17 in Rain Light Rain
7:53 PM 45.0°F 44.1°F 97% 30.14 in 2.5 miles NE 4.6 mph - 0.18 in Rain Light Rain
8:07 PM 44.6°F 44.6°F 100% 30.15 in 3.0 miles ENE 4.6 mph - 0.01 in Rain Light Rain
8:37 PM 44.6°F 44.6°F 100% 30.14 in 3.0 miles East 4.6 mph - 0.03 in Rain Light Rain
8:53 PM 45.0°F 44.1°F 97% 30.12 in 3.0 miles East 4.6 mph - 0.03 in Rain Light Rain
8:59 PM 44.6°F 44.6°F 100% 30.13 in 2.5 miles East 4.6 mph - 0.02 in Rain Rain
9:17 PM 44.6°F 44.6°F 100% 30.12 in 4.0 miles East 5.8 mph - 0.05 in Rain Light Rain
9:53 PM 45.0°F 43.0°F 93% 30.09 in 6.0 miles East 8.1 mph - 0.05 in   Overcast
10:53 PM 45.0°F 43.0°F 93% 30.08 in 7.0 miles NE 4.6 mph - 0.01 in   Overcast
11:53 PM 45.0°F 43.0°F 93% 30.07 in 4.0 miles NNE 5.8 mph - N/A   Overcast
Astronomy
Sunrise:07:21 AM (EST) Moon Rise:06:52 AM (EST)1/11
Sunset:04:53 PM (EST) Moon Set:05:08 PM (EST)1/11
Moon Phase
Jan. 11 Jan. 11 Jan. 18 Jan. 26 Feb. 03

Copyright © 2014 The Weather Underground, Inc.